User: anonymous   Login
Location: Caltech
(34.1382°N, 118.1253°W)
Time: 17:37:36
(UTC-07:00)
Language:

SPOT 1/Viking Rocket - Orbit

View from above orbital plane
View from above orbital plane
View from above satellite
View from above satellite

Ground track
Ground track

The orbit data is extracted from the following two-line orbital elements,

1 16615U 86019C   14297.17325541  .00000365  00000-0  15492-3 0  5257
2 16615 098.7423 349.2537 0011648 012.7947 052.7499 14.31328476501143
Epoch (UTC): 24 October 2014 04:09:29
Eccentricity: 0.0011648
inclination: 98.7423°
perigee height: 779 km
apogee height: 795 km
right ascension of ascending node: 349.2537°
argument of perigee: 12.7947°
revolutions per day: 14.31328476
mean anomaly at epoch: 52.7499°
orbit number at epoch: 50114

The dashed part of the orbit path shows where the satellite is in the earth's shadow,  

DLR